Theta_e
271 271 272 272 272 273 273 273 273 273 274 274 274 274 274 274 274 274 274 275 275 275 275 275 276 276 276 276 276 276 275 275 275 275 275 276 276 277 277 277 278 278 279 281 283 283 285 286 287 289 292 294 296 298 300 301 301 300 300 301 302 302 302 303 305 306 307 309 311 313 314 314 315 315
270 271 271 271 271 272 272 272 273 273 273 273 273 273 274 274 274 274 274 274 275 275 275 275 276 276 276 276 276 276 275 275 275 275 275 275 276 276 276 276 276 277 278 279 280 281 283 284 285 287 289 292 294 295 296 298 300 301 301 300 300 300 300 300 301 302 303 305 306 309 311 313 314 314
270 270 270 270 271 271 271 272 272 272 272 273 273 273 273 273 273 273 273 273 274 274 274 275 275 275 275 275 275 275 275 275 275 275 275 275 275 275 275 275 276 276 277 277 278 279 281 282 283 285 287 290 292 294 295 296 299 300 301 301 300 299 299 299 299 300 301 302 303 305 307 309 311 312
269 269 269 269 270 270 271 271 271 272 272 272 272 272 273 273 273 273 273 273 273 274 274 274 274 274 274 274 274 274 275 275 275 274 274 274 274 274 275 275 276 276 276 276 277 278 279 280 281 283 285 287 290 291 293 295 298 298 300 301 300 299 298 298 298 299 299 300 301 301 303 305 307 308
268 268 268 268 269 269 269 270 271 271 271 271 272 272 272 273 273 273 273 273 273 273 273 273 273 273 273 273 273 274 274 274 274 274 274 274 274 274 275 276 276 276 276 276 276 277 278 279 280 281 283 285 287 289 291 294 296 296 297 299 300 299 298 298 297 297 297 298 299 300 301 303 304 305
268 268 268 268 268 268 268 268 269 270 270 271 271 271 272 272 272 272 272 272 273 273 273 273 273 273 273 273 273 274 274 274 274 274 274 274 274 274 275 276 276 277 277 276 276 276 277 278 279 280 281 283 285 286 289 292 294 294 294 297 299 299 299 298 297 296 297 297 298 299 300 301 301 303
267 267 267 268 268 268 268 268 268 268 269 269 270 271 271 271 271 272 272 272 272 272 272 272 272 273 273 273 273 273 273 273 274 274 274 274 274 275 275 276 276 277 277 277 277 276 276 277 278 279 280 282 283 284 286 289 291 292 293 295 298 299 298 297 296 296 296 296 297 297 298 299 299 300
267 267 267 267 267 268 268 268 268 268 268 268 269 269 270 270 271 271 271 271 271 272 272 272 272 272 272 272 273 273 273 273 273 273 274 274 274 275 276 276 276 276 277 277 277 277 276 276 277 279 279 280 282 283 284 286 288 289 291 293 296 297 297 296 296 296 295 295 296 296 297 298 298 299
267 267 267 267 267 267 267 268 268 268 268 268 268 269 269 269 270 270 270 271 271 271 271 271 271 271 272 272 272 272 272 273 273 273 273 274 274 275 275 275 275 275 276 276 277 277 276 276 277 278 279 279 280 281 283 284 286 287 288 291 293 295 295 295 295 295 295 295 295 295 295 296 297 297
267 267 267 267 267 267 267 268 268 268 268 268 268 268 268 269 269 269 270 270 270 270 270 270 271 271 271 271 272 272 272 272 272 273 273 274 274 275 275 274 275 275 275 276 277 277 277 277 277 277 278 279 280 280 281 283 284 285 286 288 290 292 293 294 294 294 294 294 294 294 294 295 296 296
267 267 267 267 267 267 267 267 267 268 268 268 268 268 268 268 268 269 269 269 269 270 270 270 270 270 271 271 271 272 272 272 272 273 274 274 274 274 274 274 275 275 276 276 277 277 278 278 278 278 278 278 279 280 280 281 282 284 285 286 287 288 290 291 292 292 292 293 293 293 293 294 294 295
267 267 267 267 267 267 267 267 267 267 267 268 268 268 268 268 268 268 269 269 269 269 270 270 270 270 271 271 271 271 272 272 272 273 273 273 273 274 274 274 275 275 276 276 277 278 278 279 279 279 278 278 278 279 280 280 281 282 283 285 285 286 287 288 289 290 290 291 292 292 292 293 293 294
267 267 267 267 267 267 268 268 268 268 267 268 268 268 268 268 268 268 268 269 269 269 270 270 270 270 271 271 271 271 272 272 272 273 273 273 273 274 274 274 274 275 276 276 277 279 279 280 280 280 280 280 279 279 279 280 280 281 282 283 284 285 286 287 287 288 288 289 290 290 291 291 292 292
267 267 267 268 268 269 269 269 269 269 268 268 268 268 268 268 268 268 268 269 269 270 270 270 270 270 271 271 271 271 271 272 272 272 272 273 273 273 274 274 275 275 277 278 278 279 280 281 281 282 282 282 282 281 281 280 280 280 281 281 282 283 284 285 286 287 287 288 288 288 289 289 290 290
268 268 268 269 269 269 269 269 270 269 269 269 269 269 268 269 269 269 269 269 269 269 270 270 270 270 271 270 270 271 271 271 271 272 272 272 273 273 273 274 275 276 277 279 280 280 281 281 282 282 282 283 283 283 283 282 281 281 281 281 281 282 283 284 285 285 286 286 287 287 288 288 288 289
269 269 270 270 270 270 270 270 270 270 270 270 270 270 270 270 270 269 269 269 269 269 270 270 270 270 271 270 270 271 271 271 271 271 272 272 272 273 273 274 274 275 277 278 279 280 281 282 282 282 283 283 283 283 284 284 283 282 281 281 281 281 282 282 283 284 285 285 285 286 286 287 287 287
270 270 271 271 272 272 272 271 270 271 271 270 270 271 271 271 271 271 270 270 270 270 270 270 270 271 271 271 271 271 271 271 271 271 271 272 272 272 273 273 274 275 276 277 278 279 280 281 282 282 283 283 283 283 283 283 283 282 282 282 281 281 281 281 282 283 283 284 284 285 285 286 286 286
271 272 273 273 273 273 273 272 272 272 271 271 270 271 271 271 272 272 272 272 271 271 270 270 271 271 271 271 271 271 271 271 271 271 271 272 272 272 273 273 274 275 276 277 278 279 279 280 281 282 282 283 283 283 283 283 282 282 283 283 282 282 281 281 281 282 282 283 283 284 284 285 285 285
273 273 274 274 274 274 274 273 273 273 272 271 270 270 270 271 271 272 272 272 272 272 272 271 271 271 271 271 271 271 271 271 271 271 271 272 272 272 273 273 274 275 276 277 277 278 279 279 280 281 282 282 283 283 283 283 282 282 282 283 283 283 282 282 281 282 282 282 283 283 284 284 284 285
273 274 275 275 275 275 274 274 274 274 273 272 270 270 270 270 270 271 272 272 272 272 272 272 272 272 272 272 272 272 272 271 271 271 271 272 272 272 273 274 275 276 277 277 278 278 279 280 281 281 282 282 283 283 283 283 283 282 282 283 284 284 284 283 283 282 282 282 282 282 283 283 284 284
274 274 274 275 276 275 274 274 274 274 273 272 271 271 270 270 270 271 272 272 272 273 273 273 273 273 273 273 273 273 273 273 272 272 272 272 273 273 274 275 276 277 278 278 278 279 279 280 281 282 282 283 283 283 284 284 283 283 283 283 284 285 285 285 285 284 284 283 283 283 283 284 284 284
274 274 275 275 276 275 274 275 275 274 274 273 272 272 272 271 271 272 273 273 273 273 273 273 274 274 274 274 274 274 274 274 274 273 273 273 274 274 275 275 276 277 278 279 279 279 280 280 281 282 283 283 283 283 284 284 284 283 283 283 284 285 285 286 286 286 286 286 286 286 286 286 286 286
274 274 275 276 276 275 275 275 275 275 275 274 274 273 273 272 272 273 273 273 273 274 274 274 274 274 274 275 275 275 275 275 275 275 274 274 274 275 275 276 277 277 278 279 279 279 280 281 281 282 283 283 283 284 284 284 284 284 284 284 284 285 285 286 286 286 286 286 287 287 287 287 287 288
274 275 275 276 276 275 275 275 275 276 276 276 275 275 274 273 274 274 274 274 274 274 274 274 274 274 274 274 275 275 275 275 276 276 275 275 275 276 276 277 277 278 278 280 280 280 281 281 282 283 283 283 284 284 284 284 284 284 284 284 284 285 285 285 286 286 286 286 287 287 287 287 287 288
274 275 276 276 276 276 276 276 276 276 277 276 276 276 275 275 276 276 275 275 275 275 275 274 274 274 274 275 275 275 275 276 276 276 276 276 276 276 277 277 278 278 279 279 280 280 281 281 282 283 283 283 284 284 283 284 284 284 284 284 284 285 285 285 285 286 286 286 286 287 287 287 287 287
274 275 276 276 276 276 276 277 277 276 276 276 277 277 277 277 277 276 276 276 276 275 275 275 275 275 275 275 275 275 276 276 276 276 276 276 277 277 277 277 278 278 279 279 280 281 281 281 282 282 282 283 283 284 283 283 283 283 283 284 284 284 284 285 285 285 285 286 286 286 286 287 287 287
274 275 276 276 276 276 277 277 276 276 276 276 277 277 277 277 276 276 276 277 277 276 276 276 276 276 276 276 276 277 277 277 277 277 277 277 277 277 277 277 278 278 278 279 280 280 281 282 282 282 282 282 283 283 283 283 283 283 283 283 283 283 284 284 284 285 285 285 285 285 285 285 286 286
274 275 275 276 276 276 276 276 276 276 276 277 277 277 276 275 275 275 276 276 277 277 277 277 277 277 277 277 277 277 277 278 278 278 277 277 277 277 277 278 278 278 278 279 279 279 280 281 281 282 282 282 282 283 283 284 283 283 283 283 283 283 283 283 284 284 284 284 284 284 284 284 285 285
273 274 275 276 276 276 276 276 276 276 276 276 276 276 275 274 274 275 275 276 276 277 277 277 278 278 278 278 278 278 278 278 278 278 278 278 278 278 278 278 278 278 278 278 278 279 279 280 281 281 282 282 282 283 283 283 283 283 283 283 283 283 283 283 283 283 284 284 284 284 284 284 284 284
273 274 275 275 276 276 276 276 276 276 276 276 275 275 274 273 273 274 275 275 275 276 277 277 278 278 278 278 278 278 278 278 279 279 279 279 278 278 278 278 278 278 278 279 279 279 279 280 280 281 281 282 282 282 282 283 283 283 283 283 283 283 283 283 283 283 283 283 283 283 283 283 283 283
274 274 275 275 275 275 275 275 275 275 275 275 275 274 273 273 273 273 274 274 274 275 276 277 277 278 278 278 278 278 279 279 279 279 279 279 279 278 278 278 278 278 279 279 279 279 279 279 280 280 281 281 282 282 282 282 283 283 283 283 283 283 283 282 283 283 282 282 282 282 282 282 282 282
273 274 275 275 275 274 274 274 274 274 274 274 274 273 273 272 272 272 273 273 274 274 275 275 276 277 277 277 278 278 278 279 279 279 279 279 279 279 278 278 278 279 279 279 279 279 279 279 279 280 280 281 281 282 282 282 282 282 283 283 283 283 283 283 283 282 282 282 282 282 281 281 281 281
272 273 273 274 274 273 273 274 273 273 273 273 273 273 272 272 272 272 272 273 273 274 274 274 275 275 276 276 277 278 278 278 278 279 279 279 279 279 279 279 279 279 279 279 279 278 278 278 278 279 279 280 280 281 281 282 282 282 282 283 283 282 282 282 282 282 282 281 282 282 281 280 280 281
271 272 273 273 273 273 273 273 273 273 273 272 272 272 272 272 272 272 272 273 273 273 273 273 274 274 275 275 276 276 277 278 278 278 279 279 279 279 279 279 279 279 279 280 280 279 278 278 277 277 277 278 279 280 280 281 281 282 282 282 282 282 282 282 282 282 281 281 282 282 281 280 280 281
271 271 272 273 273 273 273 273 273 273 273 272 272 272 271 271 271 271 271 271 271 271 271 272 272 273 273 274 275 275 276 277 278 278 278 279 279 280 280 280 280 279 279 280 280 280 279 277 277 277 277 277 278 279 279 279 280 281 282 282 282 282 282 282 281 282 282 281 282 282 281 280 280 280
270 271 272 272 272 272 272 272 273 272 272 272 271 271 271 271 270 270 270 270 270 270 269 270 271 272 273 273 274 275 276 276 277 277 278 278 279 279 279 280 280 280 280 280 280 280 279 278 277 278 279 279 279 279 279 279 279 280 281 282 282 282 281 281 281 281 282 281 281 281 282 281 280 280
271 272 272 272 272 272 272 272 272 272 271 271 271 271 271 270 270 270 270 270 270 269 269 269 270 271 271 272 273 274 275 275 276 277 278 278 279 279 279 279 280 279 280 280 280 280 279 279 278 279 280 280 279 279 280 280 280 280 280 281 282 281 281 280 280 281 281 281 281 281 282 282 281 280
271 272 272 273 272 272 272 271 271 271 271 271 271 271 271 270 270 270 270 270 269 268 268 269 269 270 270 271 272 273 274 275 276 277 277 278 279 279 279 279 279 279 279 280 280 280 280 279 279 279 280 280 280 279 280 280 279 280 280 280 281 281 280 279 280 280 281 281 281 280 281 281 280 279
272 272 273 272 272 272 271 271 270 270 270 271 271 271 271 270 270 269 269 269 269 268 268 268 268 269 269 270 271 272 273 274 275 276 277 278 278 279 279 279 279 280 280 280 280 280 280 279 279 279 280 280 280 280 281 281 280 280 280 280 280 280 280 280 280 281 280 280 280 280 280 280 279 279
272 272 272 272 271 271 271 270 270 270 270 270 271 270 270 269 269 269 268 268 268 268 268 268 268 268 268 269 269 270 271 272 273 275 277 278 278 278 279 279 279 280 280 280 280 280 280 280 280 279 280 280 280 281 281 281 280 279 278 279 280 280 279 280 281 281 280 280 280 280 279 279 279 279
270 270 270 271 271 271 270 270 269 269 269 269 270 269 269 269 269 268 268 268 268 268 268 269 269 268 268 268 268 269 270 271 273 274 276 277 278 278 278 279 279 280 280 280 280 280 280 280 280 280 280 280 281 281 280 280 280 279 278 278 279 279 279 279 280 280 280 280 280 280 279 279 279 279
269 269 269 269 269 269 269 269 269 268 268 268 268 268 268 268 268 268 268 268 268 268 268 268 268 269 269 268 268 268 269 271 272 274 276 277 278 278 278 279 280 280 279 280 280 280 280 280 280 280 280 280 280 280 280 281 281 279 277 276 277 278 278 278 279 279 280 280 280 279 279 279 279 279
268 268 268 268 268 268 268 268 267 267 267 267 267 267 267 267 267 267 267 267 267 267 267 267 268 269 269 269 268 267 268 270 271 273 274 276 278 279 279 279 279 280 280 280 280 280 280 280 280 280 280 280 280 280 281 281 281 279 276 276 276 276 277 278 278 278 279 279 279 279 279 279 279 280
267 267 267 267 267 266 266 266 266 266 266 266 266 266 266 266 266 266 266 266 266 266 267 267 268 268 269 270 269 268 268 270 271 272 273 275 277 279 280 279 280 280 280 280 279 279 278 279 279 279 279 279 280 280 281 281 279 278 276 276 276 276 276 276 277 277 278 278 278 278 278 278 279 279
266 266 266 265 265 265 265 265 265 265 265 265 265 265 265 265 266 266 266 266 266 266 266 267 267 268 269 269 269 268 268 270 270 271 272 274 277 279 280 280 280 280 279 279 279 277 277 277 277 278 278 279 279 280 280 280 278 277 276 275 275 275 275 275 275 276 276 276 277 277 277 277 278 278
Wind_Speed
15 15 16 16 17 16 16 17 18 19 19 17 15 15 14 11 8 6 6 6 6 6 7 9 8 5 4 4 4 5 5 6 8 9 10 11 12 13 14 14 14 14 13 12 12 11 8 6 3 1 1 2 4 4 3 1 7 12 14 17 17 14 11 5 3 6 8 10 10 11 15 20 23 24
15 15 16 16 16 16 15 16 17 17 17 17 16 15 14 14 11 9 7 7 7 7 8 9 8 7 6 6 7 7 7 8 10 11 10 11 12 15 17 17 16 15 14 14 14 14 12 9 7 4 4 4 2 3 2 2 3 7 10 15 17 18 18 14 9 6 2 4 6 6 8 12 16 19
14 15 15 15 15 15 15 15 15 15 15 15 15 14 14 14 14 13 11 8 7 8 9 9 10 10 11 10 10 11 11 11 11 11 11 12 15 19 19 19 18 18 17 16 16 16 15 13 10 9 8 7 6 4 1 1 5 7 6 11 15 16 15 13 10 9 7 4 1 2 4 6 8 11
13 14 14 15 15 14 13 14 15 15 14 14 14 14 14 14 15 15 13 9 9 10 11 11 11 11 12 13 13 14 13 12 10 10 11 13 16 17 17 16 17 19 20 18 17 17 17 16 14 13 12 11 10 7 4 5 7 6 5 7 10 14 14 12 10 9 8 8 5 3 2 2 3 3
14 14 14 15 15 14 14 14 14 15 14 14 14 15 14 15 15 15 14 12 10 12 12 13 14 13 14 14 14 14 14 12 11 10 11 12 14 15 15 14 15 17 19 19 19 19 18 18 17 16 15 14 13 11 9 9 8 3 4 8 7 8 10 11 12 10 9 9 6 5 4 2 2 2
14 14 15 15 15 15 15 15 15 15 15 14 15 15 15 16 15 15 15 14 12 12 13 14 15 14 14 15 14 13 14 14 13 12 12 12 13 14 14 14 14 14 16 18 19 20 20 19 18 18 18 18 17 15 12 12 9 5 6 9 11 10 8 8 10 10 10 11 10 8 7 5 4 3
14 14 15 16 15 14 15 16 16 17 17 16 17 17 16 17 17 16 16 16 14 14 14 14 14 15 15 16 15 14 15 15 14 14 13 12 13 14 14 15 14 14 15 17 18 19 20 21 20 20 20 20 20 19 16 15 14 11 10 11 13 13 11 9 9 10 11 12 13 14 12 11 9 6
14 15 16 16 15 15 15 15 15 16 17 17 18 19 19 18 18 17 16 17 16 15 15 14 14 15 15 15 15 15 15 15 15 15 14 13 13 13 13 14 15 15 16 17 19 20 21 22 21 21 21 22 22 22 20 20 18 16 14 14 15 14 13 11 10 10 10 10 12 14 15 15 14 11
16 16 16 16 15 16 16 17 17 16 16 17 17 18 19 18 19 19 18 18 17 17 17 16 15 15 15 16 16 15 16 17 16 16 15 14 13 12 13 14 16 17 17 18 18 19 21 23 24 23 23 23 23 24 24 23 23 20 18 18 17 16 15 15 13 12 11 10 10 12 14 16 16 15
17 17 17 17 16 17 18 18 18 17 17 18 19 19 18 18 18 19 19 18 18 18 18 17 16 16 16 16 16 16 16 17 17 16 15 14 13 13 13 14 15 15 16 17 16 16 18 20 22 24 25 25 25 25 26 26 26 24 22 21 20 19 18 17 16 15 14 13 12 12 14 16 17 17
19 18 18 18 17 19 20 19 18 18 18 18 19 19 18 17 17 17 17 16 16 17 17 16 16 15 15 16 17 16 16 16 16 15 14 14 13 13 13 13 13 13 15 16 16 16 17 18 19 22 25 27 27 27 27 27 28 27 26 25 24 22 21 20 19 18 17 16 16 14 14 15 16 18
18 18 18 18 19 20 20 20 18 17 17 17 16 16 16 16 16 16 16 15 15 15 15 15 15 14 14 14 15 15 15 15 15 14 14 15 15 14 14 14 13 13 15 15 15 15 15 17 18 20 24 27 28 28 28 28 29 29 29 28 27 26 24 23 22 20 19 18 18 17 17 16 16 18
18 18 17 18 19 20 20 20 19 18 18 18 17 15 16 16 16 16 16 15 15 14 14 13 13 13 13 12 12 13 13 14 14 14 15 16 16 16 16 16 15 15 15 15 15 14 13 14 15 17 19 23 26 28 29 30 30 30 31 31 30 29 28 26 25 24 22 21 20 19 19 18 17 18
18 18 17 17 18 20 22 22 22 21 21 21 20 17 16 16 16 16 16 15 14 13 13 13 12 12 12 12 12 13 14 14 14 14 15 15 15 16 16 15 15 14 13 13 13 13 13 13 14 14 15 17 20 23 26 29 31 30 31 32 32 31 31 29 28 27 25 24 22 22 21 20 19 19
19 18 19 20 19 21 23 23 23 23 23 24 23 21 19 18 17 16 16 15 14 14 13 13 13 12 13 13 13 13 14 14 14 14 14 14 14 14 12 12 13 12 10 11 12 12 12 13 14 15 15 15 16 19 21 24 27 29 30 32 33 33 32 32 31 29 28 26 25 24 23 22 21 21
20 19 20 21 21 21 22 22 22 22 23 24 25 24 23 22 21 20 18 17 16 15 15 15 15 15 14 14 14 14 13 13 13 14 13 14 14 14 13 13 14 13 10 10 11 10 10 11 12 14 15 14 15 17 18 19 23 27 28 30 32 33 33 33 32 31 30 29 27 26 25 24 24 23
22 21 20 21 22 22 22 21 21 21 21 22 23 25 25 24 25 25 24 23 21 19 18 17 18 18 16 15 14 15 14 12 11 12 13 14 13 13 14 15 16 16 13 11 11 11 11 10 10 12 14 14 15 16 16 17 20 24 26 27 29 31 33 33 33 32 31 30 29 27 26 25 25 24
21 22 23 23 24 23 21 21 21 21 21 21 21 23 23 24 24 25 26 27 26 26 23 21 22 21 20 21 20 18 17 15 14 13 13 13 13 14 16 17 19 19 16 13 12 11 13 13 11 11 13 13 15 15 16 17 19 21 23 24 26 29 31 33 33 33 32 31 30 29 27 27 26 25
20 20 21 21 21 20 20 20 20 20 21 21 20 19 20 22 23 23 24 25 26 27 26 26 26 24 23 24 24 23 21 21 22 19 16 15 14 15 16 17 19 18 16 15 12 10 14 15 12 12 13 13 15 15 15 17 19 21 22 23 24 26 29 31 33 33 33 32 31 29 29 28 27 27
20 19 18 17 16 16 17 19 19 19 19 20 20 19 20 22 23 24 27 27 26 25 25 25 25 24 23 22 22 22 20 20 20 18 16 17 15 14 14 15 16 15 13 14 13 12 13 13 11 13 13 13 14 14 14 15 18 20 22 22 22 24 26 28 30 32 32 32 31 31 30 29 29 28
19 19 19 18 15 14 16 18 18 18 18 18 19 20 21 22 23 25 28 27 27 26 25 24 24 23 24 23 23 23 21 19 17 13 14 15 14 12 10 10 13 14 12 12 14 13 13 12 11 12 12 12 13 13 12 14 16 18 21 22 21 21 23 24 26 27 28 29 29 29 29 29 28 27
18 19 20 19 17 17 18 17 15 17 20 20 20 20 21 21 22 24 25 24 24 24 24 25 25 25 24 24 24 24 23 23 21 19 20 18 13 11 11 10 12 14 14 13 14 13 14 14 12 11 11 12 13 13 12 12 13 15 17 18 19 20 21 22 22 23 23 24 24 24 25 25 25 23
18 19 20 20 21 21 19 15 13 15 19 22 23 23 20 19 22 25 24 23 23 22 22 24 25 25 24 24 24 23 23 23 23 24 27 24 16 13 15 15 13 10 11 13 14 16 15 14 12 12 9 6 8 12 13 11 11 12 14 15 16 18 19 20 21 21 22 22 22 22 22 22 23 22
18 19 20 19 21 23 20 15 14 15 17 20 24 26 24 22 23 26 25 23 24 24 23 23 24 24 24 23 23 22 21 22 22 23 27 25 20 18 19 18 14 11 12 12 11 14 13 11 10 11 7 4 5 8 10 9 8 9 11 12 14 15 18 20 20 20 21 21 21 21 22 22 23 23
18 19 18 17 19 22 22 19 16 15 15 15 17 21 25 26 26 26 25 23 23 23 23 22 21 21 21 20 19 19 19 20 20 21 23 24 23 22 21 20 17 16 16 15 12 14 14 11 9 7 5 6 6 4 7 7 6 6 7 9 11 12 14 17 17 18 20 22 22 22 21 22 24 25
19 19 18 16 17 20 21 20 18 15 14 15 15 17 19 19 19 20 21 19 17 17 16 16 15 15 15 15 16 15 17 18 19 20 22 24 24 23 23 21 19 17 17 15 15 17 16 12 10 8 6 6 6 4 6 5 5 5 6 7 7 8 9 11 13 14 15 17 20 21 20 20 22 24
19 18 17 16 17 19 20 19 18 16 15 16 16 14 12 11 11 12 13 13 13 14 14 15 15 15 14 15 15 16 17 18 18 19 21 22 22 23 24 24 24 23 20 19 19 18 16 13 11 9 7 6 6 4 5 5 4 4 5 5 5 5 6 8 10 11 11 11 12 14 15 16 18 20
19 18 17 16 16 18 20 20 18 17 17 16 13 10 11 13 12 11 11 11 12 12 13 15 16 16 16 16 16 17 17 17 17 18 20 21 22 24 24 24 24 23 22 24 25 24 20 16 12 9 8 7 6 5 4 5 5 4 4 4 4 3 4 6 6 8 9 8 9 10 11 12 13 15
20 19 19 18 16 17 19 19 17 16 16 15 12 11 15 15 12 10 10 11 11 12 13 14 15 16 18 18 19 19 18 18 18 18 19 20 21 23 24 24 24 24 23 24 25 24 20 17 14 12 10 9 8 8 7 5 4 3 3 4 4 3 4 5 5 6 7 7 8 8 9 10 10 11
22 22 21 19 17 17 17 17 16 16 15 14 13 15 17 16 11 9 9 9 10 12 14 15 16 17 18 18 20 20 21 20 20 18 17 16 16 19 22 21 21 22 22 23 23 22 19 18 16 14 12 10 10 10 9 8 7 6 5 5 5 4 4 5 5 6 5 6 6 6 7 7 8 10
23 22 23 22 19 17 17 16 16 16 16 15 15 16 17 14 11 9 8 8 9 10 11 13 15 16 17 17 17 18 18 19 19 18 17 16 14 14 17 17 15 16 16 17 20 21 21 19 16 14 14 12 11 10 10 9 9 9 8 7 6 6 5 5 5 5 4 5 5 5 5 5 7 10
20 17 18 19 18 16 15 15 15 16 16 16 16 16 14 11 8 8 8 9 10 10 9 10 10 11 13 15 16 17 18 18 17 16 17 17 16 14 13 13 14 14 12 12 14 18 20 19 16 14 14 13 12 11 10 10 10 10 10 9 8 6 6 4 4 4 4 4 4 4 4 4 5 8
16 14 12 12 13 13 12 13 13 13 13 13 14 15 14 10 6 7 8 8 8 8 8 8 8 9 10 12 13 15 18 19 19 18 17 18 18 16 14 13 13 13 13 11 11 13 15 17 17 17 16 13 12 11 10 10 10 10 10 9 8 8 7 5 5 5 5 5 5 5 4 3 4 6
14 14 11 10 11 12 12 13 14 13 11 10 10 11 12 10 7 6 6 6 5 5 5 6 7 8 9 10 10 12 14 16 17 17 18 18 18 18 16 14 13 14 14 12 11 11 12 14 16 17 18 16 15 15 14 12 11 10 10 11 10 9 8 6 5 6 6 7 6 5 5 4 4 5
17 16 14 13 14 14 13 14 15 13 11 10 9 10 11 10 8 6 5 4 4 4 4 5 7 7 8 10 10 11 12 14 14 15 16 17 17 18 18 16 15 15 14 14 13 11 11 12 12 11 12 12 12 14 17 18 16 13 11 11 12 10 8 7 6 7 10 10 7 5 5 5 4 5
20 20 18 16 15 15 15 15 14 13 12 12 12 12 11 9 8 7 7 7 7 6 4 5 5 6 7 9 9 10 11 12 13 14 15 16 17 18 18 17 16 16 15 15 14 13 12 12 11 10 8 6 6 7 11 16 20 19 15 12 12 11 9 8 9 10 12 11 8 7 7 6 6 8
20 20 19 17 16 15 15 15 15 16 16 15 15 14 12 9 9 10 9 8 9 7 6 6 6 6 7 8 8 9 10 11 11 12 13 15 17 18 17 16 16 16 15 15 16 15 13 12 12 11 8 5 5 6 7 9 15 22 22 17 13 11 9 9 10 12 14 13 11 9 8 5 5 7
21 20 19 17 15 15 14 15 17 19 19 17 16 15 14 11 10 9 8 8 8 6 5 6 6 6 7 7 8 9 10 10 11 12 13 14 15 16 16 16 16 16 15 15 16 16 15 14 13 13 12 8 6 6 7 7 10 17 24 23 18 12 8 8 10 13 16 16 14 12 10 6 6 7
16 16 16 14 14 14 15 17 20 21 20 18 16 15 14 12 10 9 8 8 9 7 5 5 5 6 7 7 7 8 9 9 11 12 13 14 15 16 16 17 17 16 15 15 16 16 16 15 14 14 15 13 10 10 10 10 9 12 19 24 23 16 8 8 11 12 14 16 16 13 11 9 8 7
11 12 14 14 14 15 17 19 20 19 18 17 16 15 14 12 10 10 9 9 9 8 7 7 6 6 6 6 6 7 8 9 11 12 12 14 15 16 16 16 16 15 14 14 15 16 17 16 15 17 17 17 15 14 12 9 8 9 12 18 23 20 13 10 10 10 13 17 16 12 10 8 7 6
12 12 12 12 13 15 17 18 18 17 16 15 14 14 13 11 11 10 10 9 9 8 7 7 8 8 8 7 7 7 8 8 10 11 12 14 15 15 15 16 15 14 13 14 15 16 17 17 17 17 17 17 16 13 8 5 6 7 7 10 17 20 17 14 12 11 14 18 17 12 8 7 6 5
12 11 10 11 13 15 16 16 15 15 14 14 13 13 12 11 11 10 10 9 9 8 7 7 8 9 8 7 7 7 8 8 9 10 12 14 15 15 15 16 15 14 14 15 15 15 16 16 16 16 17 18 15 11 7 6 7 7 6 6 9 13 14 16 16 15 15 17 16 11 8 6 5 4
11 12 11 12 13 13 13 13 13 13 13 13 12 12 11 11 10 10 10 9 8 8 8 8 7 7 8 7 6 6 7 8 9 9 11 13 14 14 15 15 15 15 16 14 12 11 13 14 15 16 17 17 14 11 9 10 10 10 8 7 7 7 8 10 13 14 14 15 16 13 10 8 5 4
11 11 11 11 11 10 11 12 12 13 12 12 12 11 11 11 10 10 9 9 8 8 8 8 7 6 6 5 5 6 7 8 8 9 11 13 14 15 15 15 14 14 13 11 9 10 11 13 14 15 15 14 13 13 12 10 10 11 9 9 10 10 10 10 11 12 13 14 14 13 11 10 9 7
9 9 9 9 9 10 11 11 12 12 12 11 11 11 10 10 10 9 9 8 8 7 7 7 6 6 5 4 4 5 6 7 8 10 12 13 13 13 13 13 12 11 10 11 12 10 10 11 13 13 12 12 12 10 9 10 12 12 11 12 14 13 13 13 12 11 12 12 12 11 9 9 9 8
Wind_Direction
248 248 248 248 251 254 253 254 257 258 259 258 256 256 256 259 267 277 275 271 275 278 279 287 293 283 277 277 264 277 300 311 321 323 315 310 306 297 291 290 293 289 290 300 293 276 270 266 263 278 171 112 100 107 95 161 227 241 251 252 253 260 273 275 130 107 100 112 137 171 194 207 209 207
246 247 248 248 250 253 253 254 254 252 254 254 253 252 250 251 254 262 271 272 271 276 276 275 282 291 292 293 291 284 289 303 315 315 310 304 300 297 293 287 283 282 282 284 277 269 268 259 255 267 241 205 159 120 71 49 179 203 234 248 252 259 272 278 271 257 230 100 92 107 144 179 199 205
241 243 246 246 248 251 251 250 249 248 247 248 248 247 245 246 248 253 262 267 265 269 274 273 273 282 290 293 296 292 289 294 303 306 301 296 295 295 295 290 283 279 277 278 274 267 264 261 258 258 245 227 213 194 155 157 158 160 204 238 249 254 261 270 271 264 258 237 166 74 79 119 163 191
238 240 243 244 245 247 248 247 246 246 246 244 244 245 244 244 243 246 252 259 265 263 264 268 271 276 284 289 292 293 292 290 291 295 293 294 295 294 293 291 286 281 278 275 271 266 262 258 257 254 245 237 229 222 214 186 161 143 168 198 228 242 244 251 253 250 256 259 250 252 297 46 103 140
236 238 240 242 242 242 244 246 245 245 244 242 242 243 242 243 240 240 245 253 264 263 258 261 268 273 279 283 285 288 290 290 289 289 288 289 291 290 288 286 284 283 281 278 269 263 260 256 254 252 247 242 236 231 223 198 173 170 199 170 173 213 225 233 239 240 244 249 248 236 234 270 335 6
234 235 238 240 240 238 239 242 243 244 243 240 241 241 240 242 242 240 244 250 260 264 262 263 267 269 272 276 280 283 285 289 291 289 286 286 284 283 282 282 282 280 279 279 273 263 257 253 251 249 246 243 240 236 229 212 199 224 228 181 164 173 185 201 214 219 223 226 229 231 233 249 271 304
231 232 235 238 237 234 235 237 238 240 241 241 241 241 241 242 244 242 244 249 255 263 266 265 265 267 269 271 275 279 283 286 289 289 287 285 280 278 278 276 277 279 277 278 275 265 256 250 247 245 243 242 240 237 233 224 217 225 224 195 177 175 174 176 184 191 202 214 227 236 241 246 251 263
232 230 233 236 235 233 234 235 235 235 236 238 240 242 243 243 245 246 245 247 251 259 265 264 264 267 269 270 273 277 283 285 287 287 286 285 280 274 274 274 276 279 280 278 273 265 254 246 243 241 240 240 239 237 235 230 226 226 223 207 195 192 191 192 191 188 189 198 215 227 235 242 245 246
236 232 233 235 232 231 232 234 235 233 231 233 237 240 241 242 245 247 247 248 249 254 260 262 263 265 267 270 270 272 278 284 287 287 284 282 277 270 270 274 277 279 280 278 274 265 255 245 240 237 237 237 237 236 235 233 231 231 227 218 210 206 204 206 207 204 201 200 202 207 217 228 235 236
238 235 234 234 232 230 231 233 233 232 231 232 235 237 238 240 243 245 247 248 249 251 256 260 262 262 263 266 267 266 269 276 282 287 286 280 273 273 275 274 275 277 278 275 271 265 257 248 241 237 235 233 234 233 233 233 233 233 232 228 223 217 212 211 212 211 210 210 210 206 206 211 218 222
240 237 235 233 231 230 230 230 229 229 229 230 232 233 234 235 237 240 243 245 247 249 252 256 258 259 259 260 264 265 263 266 271 276 281 282 280 280 280 278 276 276 276 274 272 267 260 251 243 238 235 233 231 230 230 231 232 233 233 232 230 227 222 218 218 217 215 214 215 215 211 209 210 212
241 238 235 233 231 228 228 227 225 224 224 225 227 228 228 229 230 234 239 241 243 245 247 251 254 256 257 257 259 261 258 256 257 258 266 276 283 285 284 283 282 280 279 277 274 270 263 253 244 238 235 233 231 229 228 228 229 230 231 232 233 231 229 225 224 223 222 220 218 218 217 214 212 211
241 238 235 233 231 229 231 235 234 230 225 224 224 223 222 223 225 229 233 236 237 239 241 245 248 251 253 252 252 253 250 248 249 253 263 271 279 286 287 285 284 281 278 275 270 265 258 251 244 237 234 233 231 229 228 227 228 227 227 229 230 231 231 229 227 227 226 225 224 223 222 220 218 216
244 241 238 237 239 241 243 245 244 239 232 227 225 223 220 220 221 223 226 227 229 232 236 240 242 246 249 248 248 249 248 248 251 256 262 268 275 282 286 288 287 279 269 266 266 263 254 246 241 236 230 229 228 227 227 228 227 227 226 226 227 228 230 230 229 228 227 227 227 228 228 227 224 222
246 246 248 250 251 250 249 249 248 244 236 229 227 226 224 221 218 216 217 221 225 229 234 238 238 241 246 246 245 247 248 248 249 251 257 265 272 277 283 290 290 281 267 263 264 261 250 239 237 237 232 226 224 223 224 227 227 226 226 226 226 226 226 227 228 228 227 227 227 228 229 230 230 228
251 247 250 256 257 257 256 253 250 246 239 232 230 230 229 228 225 220 216 217 220 224 230 237 238 239 243 245 242 241 243 246 249 249 251 257 264 269 274 279 284 282 279 281 285 281 260 239 234 237 234 228 227 226 224 225 227 227 227 227 227 226 225 225 225 226 227 226 226 226 227 229 230 231
251 249 252 256 258 261 262 254 247 246 243 236 231 230 231 233 234 232 228 225 223 224 225 232 239 237 238 243 242 237 236 240 246 250 252 252 254 261 265 268 276 283 287 290 294 291 280 266 248 239 235 231 232 233 230 229 227 227 228 229 229 228 227 226 225 224 225 226 226 225 226 228 229 231
244 248 254 257 257 259 258 250 244 244 244 238 231 228 229 232 235 237 238 235 233 230 227 232 239 240 240 245 250 248 245 245 246 247 251 255 255 259 264 268 275 281 284 284 285 283 279 278 269 250 242 240 240 239 239 236 230 226 226 227 228 228 228 227 226 225 224 225 226 226 226 228 229 230
238 244 249 252 253 254 253 250 245 241 238 234 230 226 226 228 231 233 235 237 238 236 232 234 241 244 245 249 254 256 255 257 258 256 255 260 264 267 271 274 275 275 273 269 269 272 272 269 261 253 247 245 245 245 245 243 236 229 226 226 227 227 227 227 227 226 225 225 225 226 227 228 230 231
238 241 243 245 246 244 244 246 243 237 233 230 227 227 230 232 233 235 236 237 239 240 238 239 242 246 247 248 252 254 251 252 257 257 255 256 257 260 267 271 270 270 268 255 242 250 266 264 252 250 250 247 247 246 246 246 239 230 225 225 226 227 226 226 226 226 226 226 226 227 228 230 232 233
236 237 240 243 238 231 234 240 237 227 222 226 226 228 234 238 240 244 246 245 244 243 243 245 246 248 249 249 252 253 249 245 243 239 242 244 238 238 249 259 265 267 266 247 228 234 259 263 252 252 251 245 245 245 243 244 241 232 225 223 227 228 226 226 225 224 225 225 226 227 228 230 233 236
234 235 239 238 231 227 231 235 233 220 216 222 227 229 233 237 241 248 252 251 250 248 245 246 248 250 251 252 252 252 249 246 237 228 236 239 225 224 236 249 263 270 269 255 230 226 250 259 252 254 255 248 246 244 239 237 236 232 226 223 226 227 225 225 224 222 222 222 222 223 223 225 229 232
232 233 237 234 227 228 229 226 227 224 217 219 227 232 230 228 238 250 253 251 251 251 248 247 248 249 249 249 251 250 249 247 240 234 241 241 225 225 242 251 259 267 273 263 232 218 240 255 243 237 244 249 242 232 229 231 229 226 225 224 225 225 223 222 221 220 220 220 219 219 219 219 220 223
229 229 232 230 223 224 225 223 227 230 224 223 229 230 226 227 242 253 254 252 254 255 253 252 252 252 251 249 249 248 246 246 242 238 242 240 230 232 245 253 255 255 266 269 234 216 237 255 238 226 226 249 249 222 213 217 215 212 215 218 222 223 219 218 218 218 218 218 218 219 219 217 216 217
225 225 225 224 220 219 222 225 227 232 237 242 241 233 230 237 251 255 252 251 253 251 251 251 250 253 254 250 246 242 239 240 238 234 237 237 235 237 244 250 254 254 260 267 251 236 246 258 256 250 248 258 262 216 183 183 181 189 201 206 212 216 214 213 215 218 219 219 218 218 219 219 218 217
221 222 222 222 219 217 219 222 225 232 245 254 254 245 239 246 257 256 250 245 239 235 237 238 237 240 242 239 236 233 231 234 233 230 232 234 234 237 242 246 250 253 257 262 256 247 245 249 259 270 267 263 264 229 190 179 165 170 179 182 190 195 195 199 205 211 215 218 218 219 219 220 220 220
219 219 221 222 220 217 217 218 220 230 246 254 252 250 253 268 282 277 264 248 231 222 221 225 228 231 231 230 230 230 232 235 233 231 235 238 238 239 243 245 247 250 253 259 261 259 255 254 260 262 259 272 280 252 209 194 171 153 157 171 181 180 178 183 191 197 200 203 208 211 213 218 222 224
221 218 219 221 217 214 216 217 220 234 248 250 245 248 268 284 289 280 267 255 241 229 219 218 224 227 227 229 233 236 237 238 235 234 240 246 247 246 248 248 247 246 247 252 259 264 264 264 266 262 256 266 276 269 242 210 175 145 157 193 202 192 187 183 184 193 196 194 196 200 204 211 217 221
224 221 221 222 216 212 215 219 227 241 247 240 235 252 273 281 278 263 254 249 244 239 231 225 225 226 227 232 239 242 241 240 238 235 238 244 248 250 252 253 251 250 249 251 255 257 256 256 258 258 256 254 255 261 265 245 201 177 199 215 213 199 191 189 192 195 195 196 199 200 204 210 212 216
226 225 221 219 216 216 220 226 231 235 237 238 247 265 276 276 265 250 247 242 239 241 242 240 239 236 232 233 237 239 238 238 239 237 235 236 238 241 246 250 252 254 254 254 253 248 244 243 245 246 247 247 246 250 255 254 246 238 233 231 234 229 207 191 197 197 190 196 205 206 210 215 217 219
229 227 221 219 221 220 221 226 232 233 237 246 258 269 273 269 254 241 239 239 240 243 244 246 248 247 244 240 238 235 234 235 236 235 236 236 233 233 237 241 247 252 253 256 255 246 237 234 235 236 236 236 238 241 242 244 246 242 237 234 238 247 232 193 187 201 206 205 206 211 218 224 227 228
223 220 213 212 214 212 212 220 229 233 237 245 255 261 262 257 245 241 241 239 241 242 242 245 247 248 247 245 242 241 240 240 239 238 239 240 237 232 227 229 239 245 241 242 247 243 235 230 226 227 230 231 234 236 235 237 240 240 240 236 231 243 250 221 202 218 218 203 204 212 218 232 242 243
215 211 202 197 197 200 207 215 220 223 227 235 245 253 255 248 233 236 237 233 234 236 234 239 242 244 245 245 244 244 243 243 244 244 242 238 234 229 222 220 231 240 234 225 226 229 230 227 222 221 222 223 228 231 230 236 239 234 235 236 233 239 249 238 224 222 204 195 214 218 206 219 245 251
216 214 207 200 198 202 206 211 215 215 214 216 225 237 243 236 223 225 231 230 233 233 230 235 239 240 243 244 243 243 244 244 243 241 240 238 232 225 223 224 229 234 233 226 217 211 217 224 225 225 226 225 227 229 228 232 238 235 233 235 235 238 242 234 228 228 217 213 221 216 198 202 233 242
217 216 211 207 204 203 205 209 214 215 211 210 212 217 225 224 220 220 222 227 237 241 238 240 240 238 241 243 242 242 243 244 243 241 243 244 236 228 226 227 230 231 229 226 219 205 204 213 217 217 221 226 232 237 235 232 232 234 238 236 233 235 237 235 237 236 227 223 220 209 199 196 206 220
213 214 212 208 202 201 205 209 212 213 212 213 215 214 213 211 210 212 216 231 245 249 245 241 239 238 241 242 243 243 242 243 243 241 241 243 240 233 229 228 229 228 225 225 221 206 194 198 199 196 199 205 216 237 244 235 228 227 232 238 239 234 230 236 244 237 225 220 214 208 211 210 208 215
208 210 209 208 201 198 201 206 210 213 215 215 217 217 213 207 211 218 227 242 250 252 251 250 248 248 247 245 246 246 243 241 241 238 237 239 239 236 231 231 231 228 224 225 223 210 193 187 192 198 200 199 207 228 238 231 224 223 225 230 237 233 221 225 232 224 217 216 211 210 218 220 208 213
203 203 203 202 197 193 198 206 209 212 214 215 216 219 218 219 226 233 237 242 243 241 242 248 249 249 248 246 245 246 243 241 241 239 236 236 238 237 235 233 232 229 225 225 222 212 197 190 194 201 204 206 215 225 221 212 217 223 223 224 227 230 216 204 207 209 210 212 211 211 215 212 202 211
194 189 190 189 185 189 202 211 210 209 212 213 214 217 220 224 233 240 239 236 237 236 236 242 246 248 249 247 244 244 245 244 243 242 237 232 232 236 235 232 230 227 223 222 220 210 200 195 197 201 209 214 216 218 220 216 210 215 220 220 221 223 216 202 202 202 202 205 207 207 207 210 215 222
171 169 177 183 187 198 209 211 206 206 209 211 213 216 219 222 230 236 234 233 235 238 242 248 254 257 256 251 245 244 245 244 246 250 246 237 234 237 236 232 228 224 222 224 221 209 200 200 203 204 207 213 215 216 219 213 193 192 209 217 218 217 215 209 205 202 203 205 201 193 190 197 206 213
165 168 180 189 198 204 204 202 201 205 209 210 212 216 220 222 226 227 227 230 235 238 244 253 262 266 265 257 249 247 248 247 247 248 245 239 235 234 234 231 225 221 224 229 222 209 203 206 210 208 207 210 214 214 210 197 184 184 195 214 220 220 220 216 210 210 214 210 198 184 180 186 187 196
154 159 166 177 187 192 193 196 202 206 207 208 210 214 217 219 220 221 225 233 239 240 245 254 263 270 273 267 256 249 249 251 250 246 244 242 237 230 229 229 225 221 224 225 219 210 205 206 208 207 206 207 209 204 201 208 203 183 171 194 219 223 223 220 218 222 223 212 197 186 182 179 182 208
147 149 154 167 178 185 191 199 203 203 203 205 208 210 212 212 213 215 222 231 236 238 244 252 260 271 276 272 262 255 254 253 254 251 249 249 245 232 222 220 220 222 225 223 213 203 201 204 206 205 203 203 200 198 209 215 198 175 165 174 188 197 205 210 215 220 220 210 202 200 198 191 191 214
150 154 163 175 183 189 194 198 199 199 201 203 203 204 206 206 208 212 218 225 231 234 238 243 247 258 272 274 264 261 260 256 256 257 253 252 253 244 228 218 218 222 221 209 192 188 196 202 201 199 199 199 196 202 214 207 176 162 164 167 167 168 170 171 183 197 203 203 204 208 210 211 216 226
153 161 172 180 187 191 194 196 197 196 196 196 196 198 198 199 205 212 217 223 230 233 236 242 242 247 269 285 281 280 279 265 255 256 255 254 255 250 233 218 212 209 201 191 185 186 190 193 191 190 192 193 191 197 204 186 166 161 163 164 164 167 168 168 171 178 182 187 195 199 202 210 217 222